Regional Weather Roundup
Issued by NWS

Home | Current Version | Previous Version | Graphics & Text | Print | Product List | Glossary Off
Versions: 1 2 3 4 5 6 7 8 9 10 11 12 13 14 15 16 17 18 19 20 21 22 23 24 25 26 27

000
ASUS45 KBOU 201706
RWRCO

WEATHER ROUNDUP FOR COLORADO
NATIONAL WEATHER SERVICE DENVER/BOULDER CO
1100 AM MDT SUN APR 20 2014

NOTE: "FAIR" INDICATES FEW OR NO CLOUDS BELOW 12000 FEET WITH NO
SIGNIFICANT WEATHER AND/OR OBSTRUCTIONS TO VISIBILITY.

COZ001>005-013-030-031-201800-
...NORTHWEST COLORADO...

CITY           SKY/WX    TMP DP  RH WIND       PRES   REMARKS
CRAIG          SUNNY     58  39  49 VRB6      30.18R
HAYDEN         SUNNY     54  36  50 NE3       30.21S
MEEKER         SUNNY     59  37  44 CALM      30.18S
MOUNT WERNER   MOSUNNY   41  32  70 W5        30.35R
STEAMBOAT SPGS SUNNY     55  34  44 CALM      30.20S
WALDEN         MOSUNNY   50  34  53 S6        30.23S
$$

COZ006>008-011-201800-
...WEST CENTRAL VALLEYS...

CITY           SKY/WX    TMP DP  RH WIND       PRES   REMARKS
GRAND JUNCTION MOSUNNY   60  40  47 CALM      30.15R
MONTROSE       SUNNY     60  41  49 CALM      30.19S
EAGLE          MOSUNNY   54  39  58 CALM      30.22F
RIFLE          MOSUNNY   57  38  48 VRB3      30.17S
DELTA          SUNNY     62  41  46 CALM      30.17S
NUCLA            N/A     59  39  47 CALM      30.22S
$$

COZ017>023-064>068-201800-
...SOUTHWEST COLORADO...

CITY           SKY/WX    TMP DP  RH WIND       PRES   REMARKS
DURANGO        SUNNY     58  33  39 W5        30.17S
CORTEZ         SUNNY     64  37  36 W12       30.16S
PAGOSA SPRINGS MOSUNNY   54  31  41 CALM      30.20S
TELLURIDE      NOT AVBL
WOLF CREEK PAS CLOUDY    34  27  75 NE15G23   30.35R WCI  24
$$

COZ009-010-012-014-032>034-037-058>063-201800-
...CENTRAL COLORADO...

CITY           SKY/WX    TMP DP  RH WIND       PRES   REMARKS
ASPEN          PTSUNNY   53  35  50 VRB6      30.22S
BUENA VISTA    CLOUDY    55  28  35 N18       30.19S
COPPER MTN     LGT SNOW  34  30  86 W9G16     30.38R VSB 3/4 WCI  26
BERTHOUD PASS  HAZE      28  19  69 N7G16     30.40R VSB<1/4 WCI  21
COTTONWOOD PAS CLOUDY    52  25  35 CALM      30.27S
GUNNISON       MOSUNNY   54  36  50 SW12G17   30.24F
KREMMLING      MOSUNNY   50  37  62 CALM      30.24F
LEADVILLE      MOSUNNY   43  25  49 N12       30.28R
MONARCH PASS   CLOUDY    32  30  93 W8        30.45R WCI  25
SALIDA         MOSUNNY   56  35  44 CALM      30.25S
SUNLIGHT       MOSUNNY   41  32  70 N6        30.37R
WILKERSON PASS PTSUNNY   37  32  81 NE7       30.35S
$$

COZ069>075-201800-
...SAN LUIS VALLEY/SANGRE DE CRISTO MOUNTAINS...

CITY           SKY/WX    TMP DP  RH WIND       PRES   REMARKS
ALAMOSA        CLOUDY    50  38  63 E3        30.18S
LA VETA PASS   FOG       39  37  93 W5        30.26R VSB 3/4
SAGUACHE       CLOUDY    55  28  35 NW7       30.19S
$$

COZ035-036-038>040-201800-
...NORTHERN COLORADO FRONT RANGE...

CITY           SKY/WX    TMP DP  RH WIND       PRES   REMARKS
DENVER INTL AP CLOUDY    60  42  51 W3        30.10R
DMNS CITY PARK   N/A     61  39  43 N3        30.10S
AURORA         PTSUNNY   61  41  48 NW6       30.10S
FRONT RANGE AP NOT AVBL
ERIE MUNI ARPT CLOUDY    60  42  51 CALM      30.09R
BOULDER MUN AP CLOUDY    61  43  51 CALM      30.09R
CENTENNIAL     CLOUDY    60  39  45 CALM      30.11S
BROOMFIELD     PTSUNNY   59  43  55 CALM      30.11R
FORT COLLINS   MOSUNNY   63  43  48 S5        30.09S
LONGMONT       MOSUNNY   67  44  41 E3        30.09F
$$

COZ041-046-047-076>085-087-088-201800-
...PIKES PEAK/PALMER DIVIDE AND SOUTHERN FOOTHILLS...

CITY           SKY/WX    TMP DP  RH WIND       PRES   REMARKS
COLO. SPRINGS  CLOUDY    61  34  36 N16       30.11S
A. F. ACADEMY  PTSUNNY   58  33  39 N16G24    30.12S
ELLICOTT       NOT AVBL
FALCON         CLOUDY    57  32  38 N13G18    30.15R
FORT CARSON    CLOUDY    63  37  37 NE16G23   30.09R
LIMON          PTSUNNY   63  41  44 N12       30.07F
MONUMENT HILL  CLOUDY    54  36  50 N10       30.15S
TRINIDAD       LGT RAIN  51  47  86 W15       30.10R
$$

COZ042>045-048>051-090-091-201800-
...NORTHEAST COLORADO...

CITY           SKY/WX    TMP DP  RH WIND       PRES   REMARKS
GREELEY ARPT   MOSUNNY   66  41  39 CALM      30.07S
AKRON          CLOUDY    62  41  46 N6        30.06R
BURLINGTON     PTSUNNY   63  48  58 N13       30.02S
WRAY           PTSUNNY   61  49  65 N6        30.03F
STERLING       PTSUNNY   64  48  55 CALM      30.04S
HOLYOKE        PTSUNNY   66  46  48 CALM      30.03S
FORT MORGAN    PTSUNNY   62  45  52 SW3       30.07S
$$

COZ086-089-092>099-201800-
...SOUTHEAST COLORADO...

CITY           SKY/WX    TMP DP  RH WIND       PRES   REMARKS
PUEBLO         CLOUDY    65  40  39 E7        30.05R
LA JUNTA       CLOUDY    62  45  53 NW10      30.03R
LAMAR          PTSUNNY   63  47  55 N12       29.98R
SPRINGFIELD      N/A     67  45  45 NW13G23   30.01R
$$



USA.gov is the U.S. government's official web portal to all federal, state and local government web resources and services.